TIMRA/MIDLANDA current weather conditions

sailwx.info

Wind from 090 at 5 knots

Air temperature 1.0° C
Visibility: greater than 5.4 NM
Dewpoint -0.0° C
Present weather: Light drizzle snow.

Last reported at 2017-Mar-01 16:20 UTC.
Time now 2017-Mar-01 17:56 UTC

Location: N 62°32' E 017°27'.
View on Google Maps.

See reports from other nearby stations

  
Tides and Currents Weather Stations Pressure Air Temp Water Temp Dewpoint Dewpoint Depression Visibility Wind Speed Wind Dir Waves Ship Positions
date/time (UTC)wind fromknots sea level pressurealtimeterstation pressurevisibilityair tempwater tempwave heightnotes
2017-Mar-01 16:20 090 5 5.4 1.0 Light drizzle snow.
2017-Mar-01 15:50 080 5 4.9 1.0 Light drizzle snow.
2017-Mar-01 15:20 080 6 5.4 1.0 Light rain.
2017-Mar-01 14:50 080 6 5.4 1.0 Light rain.
2017-Mar-01 14:20 080 6 2.7 1.0 Light drizzle snow.
2017-Mar-01 13:50 1.7-0.0 Light drizzle snow.
2017-Mar-01 13:20 090 4 2.2 1.0 Light snow.
2017-Mar-01 12:50 090 5 3.2 1.0 Light snow.
2017-Mar-01 12:20 090 5 5.4 1.0
2017-Mar-01 11:50 110 4 5.4 1.0
2017-Mar-01 11:20 090 2 5.4-0.0
2017-Mar-01 10:50 110 2 5.4-0.0
2017-Mar-01 10:20 150 7 1.8-1.0
2017-Mar-01 09:50 120 6 0.5-1.0
2017-Mar-01 09:20 140 6 0.2-1.0 Fog.
2017-Mar-01 08:50 150 6 0.1-1.0 Fog.
2017-Mar-01 08:20 0.1-1.0 Fog.
2017-Mar-01 07:50 0.1-1.0 Fog.
2017-Mar-01 07:20 0.1-1.0 Fog.
2017-Mar-01 06:50 130 2 0.1-1.0 Fog.
2017-Mar-01 06:20 0.1-1.0 Fog.
2017-Mar-01 05:50 0.1-0.0 Fog.
2017-Mar-01 05:20 0.1-0.0 Fog.
2017-Mar-01 04:50 180 2 0.6-0.0 Mist.
2017-Mar-01 04:20 0.2-0.0 Fog.
2017-Mar-01 03:50 150 1 0.1-0.0 Fog.
2017-Mar-01 03:20 0.1-0.0 Fog.
2017-Mar-01 02:50 0.1-0.0 Fog.
2017-Mar-01 02:20 0.1-0.0 Fog.
2017-Mar-01 01:50 0.1-0.0 Fog.
2017-Mar-01 01:20 0.1-0.0 Fog.
2017-Mar-01 00:50 160 1 0.1-0.0 Fog.
2017-Mar-01 00:20 0.1-0.0 Fog.
2017-Feb-28 23:50 0.1-0.0 Fog.
2017-Feb-28 23:20 340 1 0.1-0.0 Fog.
2017-Feb-28 22:50 0.2-0.0 Fog.
2017-Feb-28 22:20 050 0 0.2-0.0 Fog.
2017-Feb-28 21:50 0.4-0.0 Fog.
2017-Feb-28 21:20 0.3-0.0 Fog.
2017-Feb-28 20:50 0.6 1.0 Mist.
2017-Feb-28 20:20 1.5 1.0 Mist.
2017-Feb-28 19:50 100 4 1.0 1.0 Mist.
2017-Feb-28 19:20 090 2 0.2 1.0 Light drizzle.
2017-Feb-28 18:50 0.9 1.0 Mist.
2017-Feb-28 18:20 130 4 2.7 1.0 Light drizzle snow.
2017-Feb-28 17:50 110 6 2.7 1.0 Drizzle snow.
2017-Feb-28 17:20 100 2 2.7 1.0 Light drizzle snow.
2017-Feb-28 16:50 090 5 2.7 1.0 Light drizzle snow.
2017-Feb-28 16:20 100 6 2.7 1.0 Drizzle snow.
2017-Feb-28 15:50 100 6 2.2 1.0 Light rain. Ice pellets.
2017-Feb-28 15:20 090 6 3.2 1.0 Light rain.
2017-Feb-28 14:50 090 6 2.6 1.0 Light rain.
2017-Feb-28 14:20 100 6 2.4 1.0 Rain.
2017-Feb-28 13:50 090 6 1.8 1.0 Drizzle.
2017-Feb-28 13:20 090 6 0.8 1.0 Drizzle.
2017-Feb-28 12:50 080 5 0.8 1.0 Mist.
2017-Feb-28 12:20 090 6 1.3 1.0 Mist.
2017-Feb-28 11:50 070 4 2.7 1.0 Mist.
2017-Feb-28 11:20 080 6 2.3 1.0 Drizzle.
2017-Feb-28 10:50 070 4 2.1 1.0 Mist.
2017-Feb-28 10:20 060 5 2.1 1.0 Mist.
2017-Feb-28 09:50 1.4 1.0 Mist.
2017-Feb-28 09:20 070 4 1.8 1.0 Light rain.
2017-Feb-28 08:50 090 4 1.4 1.0 Mist.
2017-Feb-28 08:20 060 5 1.6-0.0 Mist.
2017-Feb-28 07:50 140 1 1.9-0.0 Mist.
2017-Feb-28 07:20 090 0 1.6-0.0 Mist.
2017-Feb-28 06:50 050 2 2.3-0.0 Light drizzle snow.
2017-Feb-28 06:20 1.1-0.0 Light drizzle snow.
2017-Feb-28 05:50 280 0 5.4-1.0 Light drizzle snow.
2017-Feb-28 05:20 4.9-1.0 Light drizzle snow.
2017-Feb-28 04:50 3.2-1.0 Light snow.
2017-Feb-28 04:20 1.7-1.0 Light snow.
2017-Feb-28 03:50 300 2 0.9-2.0 Light snow.
2017-Feb-28 03:20 0.6-2.0 Light snow.
2017-Feb-28 02:50 5.4-2.0 Precipitation.
2017-Feb-28 02:20 330 1 5.4-2.0
2017-Feb-28 01:50 120 1 5.4-3.0
2017-Feb-28 01:20 3.8-3.0 Mist.
2017-Feb-28 00:50 3.2-3.0 Mist.
2017-Feb-28 00:20 3.8-3.0 Mist.
2017-Feb-27 23:50 5.4-3.0
2017-Feb-27 23:20 5.4-3.0
2017-Feb-27 22:50 5.4-3.0
2017-Feb-27 22:20 140 0 5.4-3.0
2017-Feb-27 21:50 0.1-4.0 Fog.
2017-Feb-27 21:20 0.2-4.0 Fog.
2017-Feb-27 20:50 0.2-3.0 Fog.
2017-Feb-27 20:20 5.4-3.0 Patches of fog.
2017-Feb-27 19:50 140 1 5.4-2.0
2017-Feb-27 19:20 4.3-1.0
2017-Feb-27 18:50 150 2 3.2-2.0
2017-Feb-27 18:20 140 4 5.4-1.0
2017-Feb-27 17:50 150 4 5.4-0.0
2017-Feb-27 17:20 150 5 5.4-0.0